Location: Newark
(52.3500°N, 175.9667°E)
Time: 10:15:49
(UTC+00:00)

Transit 4A - Pass Details

Date: 24 April 2021
Orbit: 870 x 974 km, 66.8° (Epoch: 07 May)

Event Time Altitude Azimuth Distance (km) Brightness Sun altitude
Rises 18:59:36 0° 320° (NW) 3,528 10.6 17.3°
Reaches altitude 10° 19:02:08 10° 320° (NW) 2,571 9.9 17.7°
Maximum altitude 19:08:05 80° 234° (SW) 897 8.1 18.6°
Drops below altitude 10° 19:13:53 10° 148° (SSE) 2,516 10.8 19.5°
Sets 19:16:20 0° 148° (SSE) 3,447 11.4 19.8°
